Time,TemperatureF,DewpointF,PressureIn,WindDirection,WindDirectionDegrees,WindSpeedMPH,WindSpeedGustMPH,Humidity,HourlyPrecipIn,Conditions,Clouds,dailyrainin,SoftwareType,DateUTC
2013-03-30 00:02:00,40.0,28.0,30.22,East,79,0.0,0.0,62,-99.99,,,-99.99,,2013-03-30 04:02:00,
2013-03-30 00:13:00,40.0,28.0,30.22,East,79,0.0,0.0,62,-99.99,,,-99.99,,2013-03-30 04:13:00,
2013-03-30 00:23:00,39.0,29.0,30.22,ESE,105,1.0,0.0,66,-99.99,,,-99.99,,2013-03-30 04:23:00,
2013-03-30 00:33:00,38.0,28.0,30.22,ESE,105,0.0,0.0,67,-99.99,,,-99.99,,2013-03-30 04:33:00,
2013-03-30 00:43:00,38.0,28.0,30.22,ESE,105,0.0,0.0,67,-99.99,,,-99.99,,2013-03-30 04:43:00,
2013-03-30 00:53:00,38.0,28.0,30.22,SE,133,1.0,0.0,67,-99.99,,,-99.99,,2013-03-30 04:53:00,
2013-03-30 01:02:00,38.0,28.0,30.22,SE,133,1.0,0.0,67,-99.99,,,-99.99,,2013-03-30 05:02:00,
2013-03-30 01:12:00,38.0,28.0,30.22,SE,133,1.0,0.0,67,-99.99,,,-99.99,,2013-03-30 05:12:00,
2013-03-30 01:22:00,38.0,29.0,30.21,SE,136,0.0,0.0,69,-99.99,,,-99.99,,2013-03-30 05:22:00,
2013-03-30 01:32:00,37.0,28.0,30.22,East,84,0.0,0.0,70,-99.99,,,-99.99,,2013-03-30 05:32:00,
2013-03-30 01:42:00,37.0,28.0,30.22,East,84,0.0,0.0,70,-99.99,,,-99.99,,2013-03-30 05:42:00,
2013-03-30 01:52:00,36.0,28.0,30.22,ENE,71,1.0,0.0,72,-99.99,,,-99.99,,2013-03-30 05:52:00,
2013-03-30 02:02:00,36.0,28.0,30.22,ENE,72,0.0,0.0,72,-99.99,,,-99.99,,2013-03-30 06:02:00,
2013-03-30 02:12:00,36.0,28.0,30.22,ENE,72,0.0,0.0,72,-99.99,,,-99.99,,2013-03-30 06:12:00,
2013-03-30 02:23:00,37.0,29.0,30.22,ESE,114,0.0,0.0,72,-99.99,,,-99.99,,2013-03-30 06:23:00,
2013-03-30 02:32:00,37.0,29.0,30.22,ESE,121,1.0,0.0,72,-99.99,,,-99.99,,2013-03-30 06:32:00,
2013-03-30 02:42:00,37.0,29.0,30.22,ESE,121,1.0,0.0,72,-99.99,,,-99.99,,2013-03-30 06:42:00,
2013-03-30 02:52:00,37.0,29.0,30.22,SE,132,0.0,0.0,73,-99.99,,,-99.99,,2013-03-30 06:52:00,
2013-03-30 03:02:00,36.0,29.0,30.22,SE,132,0.0,0.0,74,-99.99,,,-99.99,,2013-03-30 07:02:00,
2013-03-30 03:12:00,36.0,29.0,30.22,SE,132,0.0,0.0,74,-99.99,,,-99.99,,2013-03-30 07:12:00,
2013-03-30 03:22:00,37.0,29.0,30.21,ESE,122,0.0,0.0,74,-99.99,,,-99.99,,2013-03-30 07:22:00,
2013-03-30 03:32:00,37.0,29.0,30.21,ESE,122,0.0,0.0,74,-99.99,,,-99.99,,2013-03-30 07:32:00,
2013-03-30 03:42:00,37.0,29.0,30.21,ESE,122,0.0,0.0,74,-99.99,,,-99.99,,2013-03-30 07:42:00,
2013-03-30 03:52:00,38.0,30.0,30.21,East,99,1.0,0.0,73,-99.99,,,-99.99,,2013-03-30 07:52:00,
2013-03-30 04:02:00,38.0,30.0,30.20,SSE,156,2.0,0.0,72,-99.99,,,-99.99,,2013-03-30 08:02:00,
2013-03-30 04:12:00,38.0,30.0,30.20,SSE,156,2.0,0.0,72,-99.99,,,-99.99,,2013-03-30 08:12:00,
2013-03-30 04:22:00,37.0,29.0,30.20,SE,134,1.0,0.0,74,-99.99,,,-99.99,,2013-03-30 08:22:00,
2013-03-30 04:32:00,36.0,29.0,30.20,SE,134,0.0,0.0,76,-99.99,,,-99.99,,2013-03-30 08:32:00,
2013-03-30 04:42:00,36.0,29.0,30.20,SE,134,0.0,0.0,76,-99.99,,,-99.99,,2013-03-30 08:42:00,
2013-03-30 04:53:00,35.0,29.0,30.20,SSE,149,0.0,0.0,78,-99.99,,,-99.99,,2013-03-30 08:53:00,
2013-03-30 05:02:00,35.0,29.0,30.20,SSE,166,2.0,0.0,79,-99.99,,,-99.99,,2013-03-30 09:02:00,
2013-03-30 05:12:00,35.0,29.0,30.20,SSE,166,2.0,0.0,79,-99.99,,,-99.99,,2013-03-30 09:12:00,
2013-03-30 05:22:00,36.0,30.0,30.20,SSE,158,1.0,0.0,78,-99.99,,,-99.99,,2013-03-30 09:22:00,
2013-03-30 05:43:00,34.0,28.0,30.21,SE,137,2.0,0.0,79,-99.99,,,-99.99,,2013-03-30 09:43:00,
2013-03-30 05:53:00,34.0,29.0,30.21,SSE,147,1.0,0.0,81,-99.99,,,-99.99,,2013-03-30 09:53:00,
2013-03-30 06:03:00,34.0,29.0,30.21,SSE,147,1.0,0.0,81,-99.99,,,-99.99,,2013-03-30 10:03:00,
2013-03-30 06:13:00,34.0,29.0,30.21,SSE,147,1.0,0.0,81,-99.99,,,-99.99,,2013-03-30 10:13:00,
2013-03-30 06:23:00,34.0,29.0,30.21,SSE,167,0.0,0.0,81,-99.99,,,-99.99,,2013-03-30 10:23:00,
2013-03-30 06:33:00,34.0,29.0,30.21,SSE,167,0.0,0.0,81,-99.99,,,-99.99,,2013-03-30 10:33:00,
2013-03-30 06:42:00,34.0,29.0,30.21,SSE,167,0.0,0.0,81,-99.99,,,-99.99,,2013-03-30 10:42:00,
2013-03-30 06:52:00,33.0,28.0,30.21,SSE,149,1.0,0.0,83,-99.99,,,-99.99,,2013-03-30 10:52:00,
2013-03-30 07:04:00,33.0,29.0,30.22,SE,143,2.0,0.0,84,-99.99,,,-99.99,,2013-03-30 11:04:00,
2013-03-30 07:12:00,33.0,29.0,30.22,SE,143,2.0,0.0,84,-99.99,,,-99.99,,2013-03-30 11:12:00,
2013-03-30 07:23:00,34.0,29.0,30.22,SE,125,3.0,0.0,82,-99.99,,,-99.99,,2013-03-30 11:23:00,
2013-03-30 07:33:00,34.0,29.0,30.22,ESE,107,1.0,0.0,82,-99.99,,,-99.99,,2013-03-30 11:33:00,
2013-03-30 07:42:00,34.0,29.0,30.22,ESE,107,1.0,0.0,82,-99.99,,,-99.99,,2013-03-30 11:42:00,
2013-03-30 07:53:00,34.0,29.0,30.23,East,92,1.0,0.0,83,-99.99,,,-99.99,,2013-03-30 11:53:00,
2013-03-30 08:02:00,34.0,29.0,30.23,SE,145,1.0,0.0,82,-99.99,,,-99.99,,2013-03-30 12:02:00,
2013-03-30 08:13:00,34.0,29.0,30.23,SE,145,1.0,0.0,82,-99.99,,,-99.99,,2013-03-30 12:13:00,
2013-03-30 08:22:00,35.0,30.0,30.24,NE,34,2.0,0.0,82,-99.99,,,-99.99,,2013-03-30 12:22:00,
2013-03-30 08:32:00,36.0,31.0,30.24,ESE,117,3.0,0.0,81,-99.99,,,-99.99,,2013-03-30 12:32:00,
2013-03-30 08:42:00,36.0,31.0,30.24,ESE,117,3.0,0.0,81,-99.99,,,-99.99,,2013-03-30 12:42:00,
2013-03-30 08:53:00,37.0,31.0,30.24,East,89,5.0,0.0,79,-99.99,,,-99.99,,2013-03-30 12:53:00,
2013-03-30 09:02:00,37.0,31.0,30.24,East,89,5.0,0.0,79,-99.99,,,-99.99,,2013-03-30 13:02:00,
2013-03-30 09:12:00,37.0,31.0,30.24,East,89,5.0,0.0,79,-99.99,,,-99.99,,2013-03-30 13:12:00,
2013-03-30 09:22:00,40.0,32.0,30.25,ENE,68,2.0,0.0,74,-99.99,,,-99.99,,2013-03-30 13:22:00,
2013-03-30 09:32:00,41.0,33.0,30.25,East,81,4.0,0.0,73,-99.99,,,-99.99,,2013-03-30 13:32:00,
2013-03-30 09:43:00,41.0,33.0,30.25,East,81,4.0,0.0,73,-99.99,,,-99.99,,2013-03-30 13:43:00,
2013-03-30 09:53:00,42.0,33.0,30.25,NE,56,1.0,0.0,71,-99.99,,,-99.99,,2013-03-30 13:53:00,
2013-03-30 10:03:00,44.0,34.0,30.25,NE,34,3.0,0.0,69,-99.99,,,-99.99,,2013-03-30 14:03:00,
2013-03-30 10:12:00,44.0,34.0,30.25,NE,34,3.0,0.0,69,-99.99,,,-99.99,,2013-03-30 14:12:00,
2013-03-30 10:23:00,45.0,34.0,30.25,SE,127,1.0,0.0,65,-99.99,,,-99.99,,2013-03-30 14:23:00,
2013-03-30 10:32:00,46.0,35.0,30.24,ESE,121,2.0,0.0,64,-99.99,,,-99.99,,2013-03-30 14:32:00,
2013-03-30 10:42:00,46.0,35.0,30.24,ESE,121,2.0,0.0,64,-99.99,,,-99.99,,2013-03-30 14:42:00,
2013-03-30 10:53:00,48.0,35.0,30.24,East,100,1.0,0.0,61,-99.99,,,-99.99,,2013-03-30 14:53:00,
2013-03-30 11:03:00,48.0,35.0,30.24,East,100,1.0,0.0,61,-99.99,,,-99.99,,2013-03-30 15:03:00,
2013-03-30 11:12:00,48.0,35.0,30.24,East,100,1.0,0.0,61,-99.99,,,-99.99,,2013-03-30 15:12:00,
2013-03-30 11:23:00,51.0,35.0,30.23,NE,41,1.0,0.0,54,-99.99,,,-99.99,,2013-03-30 15:23:00,
2013-03-30 11:34:00,51.0,35.0,30.23,NE,41,1.0,0.0,54,-99.99,,,-99.99,,2013-03-30 15:34:00,
2013-03-30 11:43:00,51.0,35.0,30.23,NE,41,1.0,0.0,54,-99.99,,,-99.99,,2013-03-30 15:43:00,
2013-03-30 11:53:00,53.0,31.0,30.21,ENE,63,1.0,0.0,43,-99.99,,,-99.99,,2013-03-30 15:53:00,
2013-03-30 12:03:00,53.0,31.0,30.21,ENE,63,1.0,0.0,43,-99.99,,,-99.99,,2013-03-30 16:03:00,
2013-03-30 12:13:00,55.0,31.0,30.19,SSE,157,1.0,0.0,40,-99.99,,,-99.99,,2013-03-30 16:13:00,
2013-03-30 12:23:00,55.0,31.0,30.19,SSE,157,1.0,0.0,40,-99.99,,,-99.99,,2013-03-30 16:23:00,
2013-03-30 12:33:00,56.0,33.0,30.18,SE,142,1.0,0.0,41,-99.99,,,-99.99,,2013-03-30 16:33:00,
2013-03-30 12:43:00,56.0,33.0,30.18,SE,142,1.0,0.0,41,-99.99,,,-99.99,,2013-03-30 16:43:00,
2013-03-30 12:53:00,58.0,31.0,30.18,ENE,64,1.0,0.0,35,-99.99,,,-99.99,,2013-03-30 16:53:00,
2013-03-30 13:02:00,58.0,31.0,30.17,South,179,2.0,0.0,36,-99.99,,,-99.99,,2013-03-30 17:02:00,
2013-03-30 13:13:00,58.0,31.0,30.17,South,179,2.0,0.0,36,-99.99,,,-99.99,,2013-03-30 17:13:00,
2013-03-30 13:23:00,59.0,31.0,30.16,ENE,66,2.0,0.0,35,-99.99,,,-99.99,,2013-03-30 17:23:00,
2013-03-30 13:32:00,59.0,28.0,30.15,SSE,154,1.0,0.0,31,-99.99,,,-99.99,,2013-03-30 17:32:00,
2013-03-30 13:42:00,59.0,28.0,30.15,SSE,154,1.0,0.0,31,-99.99,,,-99.99,,2013-03-30 17:42:00,
2013-03-30 13:53:00,60.0,29.0,30.16,East,79,3.0,0.0,31,-99.99,,,-99.99,,2013-03-30 17:53:00,
2013-03-30 14:03:00,60.0,29.0,30.16,East,79,3.0,0.0,31,-99.99,,,-99.99,,2013-03-30 18:03:00,
2013-03-30 14:13:00,60.0,29.0,30.12,SE,136,1.0,0.0,31,-99.99,,,-99.99,,2013-03-30 18:13:00,
2013-03-30 14:22:00,60.0,29.0,30.12,SE,136,1.0,0.0,31,-99.99,,,-99.99,,2013-03-30 18:22:00,
2013-03-30 14:32:00,61.0,30.0,30.12,SE,129,3.0,0.0,31,-99.99,,,-99.99,,2013-03-30 18:32:00,
2013-03-30 14:43:00,61.0,30.0,30.12,SE,129,3.0,0.0,31,-99.99,,,-99.99,,2013-03-30 18:43:00,
2013-03-30 14:53:00,61.0,30.0,30.12,ENE,72,1.0,0.0,31,-99.99,,,-99.99,,2013-03-30 18:53:00,
2013-03-30 15:03:00,62.0,30.0,30.11,NNE,17,1.0,0.0,30,-99.99,,,-99.99,,2013-03-30 19:03:00,
2013-03-30 15:13:00,62.0,30.0,30.11,NNE,17,1.0,0.0,30,-99.99,,,-99.99,,2013-03-30 19:13:00,
2013-03-30 15:22:00,62.0,29.0,30.11,SE,138,3.0,0.0,29,-99.99,,,-99.99,,2013-03-30 19:22:00,
2013-03-30 15:32:00,62.0,29.0,30.10,ESE,121,3.0,0.0,29,-99.99,,,-99.99,,2013-03-30 19:32:00,
2013-03-30 15:42:00,62.0,29.0,30.10,ESE,121,3.0,0.0,29,-99.99,,,-99.99,,2013-03-30 19:42:00,
2013-03-30 15:52:00,63.0,29.0,30.09,East,98,1.0,0.0,27,-99.99,,,-99.99,,2013-03-30 19:52:00,
2013-03-30 16:02:00,63.0,29.0,30.09,East,83,5.0,0.0,28,-99.99,,,-99.99,,2013-03-30 20:02:00,
2013-03-30 16:12:00,63.0,29.0,30.09,East,83,5.0,0.0,28,-99.99,,,-99.99,,2013-03-30 20:12:00,
2013-03-30 16:22:00,63.0,29.0,30.08,SE,136,1.0,0.0,27,-99.99,,,-99.99,,2013-03-30 20:22:00,
2013-03-30 16:33:00,64.0,29.0,30.07,ENE,60,2.0,0.0,27,-99.99,,,-99.99,,2013-03-30 20:33:00,
2013-03-30 16:42:00,64.0,29.0,30.07,ENE,60,2.0,0.0,27,-99.99,,,-99.99,,2013-03-30 20:42:00,
2013-03-30 16:53:00,64.0,28.0,30.07,East,100,1.0,0.0,26,-99.99,,,-99.99,,2013-03-30 20:53:00,
2013-03-30 17:02:00,65.0,31.0,30.06,SE,127,1.0,0.0,28,-99.99,,,-99.99,,2013-03-30 21:02:00,
2013-03-30 17:12:00,65.0,31.0,30.06,SE,127,1.0,0.0,28,-99.99,,,-99.99,,2013-03-30 21:12:00,
2013-03-30 17:23:00,65.0,30.0,30.06,SSW,208,1.0,0.0,27,-99.99,,,-99.99,,2013-03-30 21:23:00,
2013-03-30 17:34:00,65.0,30.0,30.05,SE,138,1.0,0.0,27,-99.99,,,-99.99,,2013-03-30 21:34:00,
2013-03-30 17:43:00,65.0,30.0,30.05,SE,138,1.0,0.0,27,-99.99,,,-99.99,,2013-03-30 21:43:00,
2013-03-30 17:53:00,65.0,31.0,30.05,ESE,108,1.0,0.0,28,-99.99,,,-99.99,,2013-03-30 21:53:00,
2013-03-30 18:03:00,65.0,29.0,30.04,SE,139,0.0,0.0,26,-99.99,,,-99.99,,2013-03-30 22:03:00,
2013-03-30 18:13:00,65.0,29.0,30.04,SE,139,0.0,0.0,26,-99.99,,,-99.99,,2013-03-30 22:13:00,
2013-03-30 18:23:00,65.0,29.0,30.05,ESE,115,2.0,0.0,26,-99.99,,,-99.99,,2013-03-30 22:23:00,
2013-03-30 18:33:00,64.0,29.0,30.04,ESE,106,0.0,0.0,27,-99.99,,,-99.99,,2013-03-30 22:33:00,
2013-03-30 18:43:00,64.0,29.0,30.04,ESE,106,0.0,0.0,27,-99.99,,,-99.99,,2013-03-30 22:43:00,
2013-03-30 18:54:00,64.0,29.0,30.04,ESE,106,0.0,0.0,27,-99.99,,,-99.99,,2013-03-30 22:54:00,
2013-03-30 19:02:00,64.0,32.0,30.05,ENE,76,0.0,0.0,30,-99.99,,,-99.99,,2013-03-30 23:02:00,
2013-03-30 19:12:00,64.0,32.0,30.05,ENE,76,0.0,0.0,30,-99.99,,,-99.99,,2013-03-30 23:12:00,
2013-03-30 19:22:00,64.0,32.0,30.05,ENE,77,0.0,0.0,30,-99.99,,,-99.99,,2013-03-30 23:22:00,
2013-03-30 19:33:00,61.0,29.0,30.05,NNW,329,0.0,0.0,30,-99.99,,,-99.99,,2013-03-30 23:33:00,
2013-03-30 19:42:00,61.0,29.0,30.05,NNW,329,0.0,0.0,30,-99.99,,,-99.99,,2013-03-30 23:42:00,
2013-03-30 19:52:00,59.0,29.0,30.06,NNW,328,0.0,0.0,32,-99.99,,,-99.99,,2013-03-30 23:52:00,
2013-03-30 20:03:00,58.0,31.0,30.06,NNW,329,0.0,0.0,36,-99.99,,,-99.99,,2013-03-31 00:03:00,
2013-03-30 20:12:00,58.0,31.0,30.06,NNW,329,0.0,0.0,36,-99.99,,,-99.99,,2013-03-31 00:12:00,
2013-03-30 20:22:00,56.0,32.0,30.06,NNW,328,0.0,0.0,40,-99.99,,,-99.99,,2013-03-31 00:22:00,
2013-03-30 20:32:00,54.0,32.0,30.06,NNW,328,0.0,0.0,43,-99.99,,,-99.99,,2013-03-31 00:32:00,
2013-03-30 20:42:00,54.0,32.0,30.06,NNW,328,0.0,0.0,43,-99.99,,,-99.99,,2013-03-31 00:42:00,
2013-03-30 20:53:00,51.0,31.0,30.06,NNW,328,0.0,0.0,47,-99.99,,,-99.99,,2013-03-31 00:53:00,
2013-03-30 21:02:00,52.0,31.0,30.06,NNW,328,1.0,0.0,45,-99.99,,,-99.99,,2013-03-31 01:02:00,
2013-03-30 21:12:00,52.0,31.0,30.06,NNW,328,1.0,0.0,45,-99.99,,,-99.99,,2013-03-31 01:12:00,
2013-03-30 21:22:00,51.0,32.0,30.06,NNW,328,0.0,0.0,48,-99.99,,,-99.99,,2013-03-31 01:22:00,
2013-03-30 21:32:00,50.0,32.0,30.06,NNE,28,1.0,0.0,49,-99.99,,,-99.99,,2013-03-31 01:32:00,
2013-03-30 21:42:00,50.0,32.0,30.06,NNE,28,1.0,0.0,49,-99.99,,,-99.99,,2013-03-31 01:42:00,
2013-03-30 21:53:00,49.0,33.0,30.06,NNE,27,1.0,0.0,53,-99.99,,,-99.99,,2013-03-31 01:53:00,
2013-03-30 22:02:00,48.0,32.0,30.06,NNE,27,0.0,0.0,54,-99.99,,,-99.99,,2013-03-31 02:02:00,
2013-03-30 22:13:00,48.0,32.0,30.06,NNE,27,0.0,0.0,54,-99.99,,,-99.99,,2013-03-31 02:13:00,
2013-03-30 22:22:00,48.0,33.0,30.07,NNE,27,0.0,0.0,55,-99.99,,,-99.99,,2013-03-31 02:22:00,
2013-03-30 22:32:00,47.0,32.0,30.06,NNE,27,0.0,0.0,56,-99.99,,,-99.99,,2013-03-31 02:32:00,
2013-03-30 22:43:00,47.0,32.0,30.06,NNE,27,0.0,0.0,56,-99.99,,,-99.99,,2013-03-31 02:43:00,
2013-03-30 22:52:00,46.0,32.0,30.06,NNE,27,0.0,0.0,57,-99.99,,,-99.99,,2013-03-31 02:52:00,
2013-03-30 23:02:00,46.0,32.0,30.06,NNE,27,0.0,0.0,57,-99.99,,,-99.99,,2013-03-31 03:02:00,
2013-03-30 23:13:00,46.0,32.0,30.06,NNE,27,0.0,0.0,57,-99.99,,,-99.99,,2013-03-31 03:13:00,
2013-03-30 23:22:00,46.0,32.0,30.06,NNE,27,0.0,0.0,59,-99.99,,,-99.99,,2013-03-31 03:22:00,
2013-03-30 23:33:00,46.0,33.0,30.06,NNE,27,0.0,0.0,61,-99.99,,,-99.99,,2013-03-31 03:33:00,
2013-03-30 23:44:00,46.0,33.0,30.06,NNE,27,0.0,0.0,61,-99.99,,,-99.99,,2013-03-31 03:44:00,
2013-03-30 23:54:00,46.0,33.0,30.06,NNE,27,0.0,0.0,61,-99.99,,,-99.99,,2013-03-31 03:54:00,